Weather History for KPMP - July, 2013

Change the Weather History Date:

Saturday, July 20, 2013

  Actual Average Record
Temperature  
Mean Temperature 88 °F -  
Max Temperature 102 °F 91 °F 102 °F (2013)
Min Temperature 73 °F 74 °F 66 °F (1977)
Cooling Degree Days 22    
Growing Degree Days 38 (Base 50)    
Moisture  
Dew Point 74 °F    
Average Humidity 63    
Maximum Humidity 90    
Minimum Humidity 43    
Precipitation  
Precipitation 0.01 in - - ()
Sea Level Pressure  
Sea Level Pressure 30.09 in    
Wind  
Wind Speed 10 mph (SE)    
Max Wind Speed 16 mph    
Max Gust Speed 21 mph    
Visibility 10 miles    
Events Rain    
Averages and records for this station are not official NWS values.
T = Trace of Precipitation, MM = Missing Value Source: NWS Daily Summary

Daily Weather History Graph

Daily Weather History Graph

Search for Another Location

Airport or City:

Trip Planner

Search our weather history database for the weather conditions in past years. The results will help you decide how hot, cold, wet, or windy it might be!

Date:

Astronomy

Jul. 20, 2013 Rise Set
Actual Time 6:40 AM EDT 8:13 PM EDT
Civil Twilight 6:14 AM EDT 8:38 PM EDT
Nautical Twilight 5:44 AM EDT 9:09 PM EDT
Astronomical Twilight 5:12 AM EDT 9:40 PM EDT
Moon 6:16 PM EDT (7/20) 4:17 AM EDT (7/20)
Length of Visible Light 14h 24m
Length of Day
13h 33m
Waxing Gibbous, 93% of the Moon is Illuminated
Jul 20
Waxing Gibbous
Jul 22
Full
Jul 29
Last Quarter
Aug 6
New
Aug 14
First Quarter

Hourly Weather History & Observations

Time (EDT) Temp. Heat Index Dew Point Humidity Pressure Visibility Wind Dir Wind Speed Gust Speed Precip Events Conditions
12:53 AM - - - N/A% 30.11 in 10.0 mi ESE 9.2 mph - N/A   Clear
1:53 AM - - - N/A% 30.09 in 10.0 mi SE 9.2 mph - N/A   Partly Cloudy
2:53 AM - - - N/A% 30.06 in 10.0 mi ESE 8.1 mph - N/A   Unknown
3:53 AM - - - N/A% 30.06 in 10.0 mi ESE 9.2 mph - N/A   Unknown
4:53 AM - - - N/A% 30.07 in 10.0 mi ESE 9.2 mph - N/A   Unknown
5:53 AM - - - N/A% 30.07 in 10.0 mi ESE 11.5 mph - N/A   Unknown
6:53 AM - - - N/A% 30.07 in 10.0 mi North - - N/A   Scattered Clouds
7:53 AM - - - N/A% 30.07 in 10.0 mi SE 8.1 mph - N/A   Mostly Cloudy
8:53 AM - - - N/A% 30.09 in 10.0 mi SE 11.5 mph - N/A   Mostly Cloudy
9:25 AM - - - N/A% 30.10 in 10.0 mi SE 10.4 mph - 0.00 in Rain Light Rain
9:36 AM - - - N/A% 30.10 in 10.0 mi ESE 13.8 mph - 0.01 in Rain Light Rain
9:45 AM - - - N/A% 30.10 in 10.0 mi SE 13.8 mph - 0.01 in Rain Light Rain
9:53 AM - - - N/A% 30.12 in 10.0 mi SE 15.0 mph 20.7 mph 0.01 in   Overcast
10:53 AM 73.0 °F - 68.0 °F 84% 30.12 in 10.0 mi SE 10.4 mph - N/A   Clear
11:53 AM 96.1 °F 109.4 °F 75.9 °F 52% 30.12 in 10.0 mi South 12.7 mph 20.7 mph N/A   Clear
12:53 PM 99.0 °F 114.5 °F 77.0 °F 49% 30.12 in 10.0 mi SE 16.1 mph - N/A   Partly Cloudy
1:53 PM 98.1 °F 113.8 °F 77.0 °F 51% 30.10 in 10.0 mi SSE 15.0 mph - N/A   Partly Cloudy
2:53 PM 99.0 °F 113.5 °F 75.9 °F 48% 30.06 in 10.0 mi SSE 11.5 mph - N/A   Clear
3:53 PM 97.0 °F 110.9 °F 75.9 °F 51% 30.06 in 10.0 mi SSE 13.8 mph - N/A   Mostly Cloudy
4:53 PM 102.0 °F 116.8 °F 75.9 °F 43% 30.07 in 10.0 mi SSE 11.5 mph - 0.00 in   Mostly Cloudy
5:53 PM 96.1 °F 111.0 °F 77.0 °F 54% 30.06 in 10.0 mi SSE 9.2 mph - N/A   Unknown
6:53 PM 97.0 °F 112.7 °F 77.0 °F 53% 30.06 in 10.0 mi South 8.1 mph - N/A   Mostly Cloudy
7:53 PM 89.1 °F 96.0 °F 72.0 °F 57% 30.07 in 10.0 mi Calm Calm - 0.00 in Rain Light Rain
8:53 PM 77.0 °F - 72.0 °F 84% 30.07 in 10.0 mi WSW 3.5 mph - 0.00 in   Overcast
9:53 PM 77.0 °F - 72.0 °F 84% 30.09 in 10.0 mi Calm Calm - 0.00 in   Unknown
10:53 PM 77.0 °F - 73.0 °F 88% 30.11 in 10.0 mi WSW 3.5 mph - N/A   Unknown
11:53 PM 77.0 °F - 73.9 °F 90% 30.10 in 10.0 mi Calm Calm - N/A   Unknown